owner,sensor,date,latitude,longitude,air_pressure(mBar),qcFlag 
WAVCIS,ioos:station:WAVCIS:CSI09:1,2009-12-01T00:00:00Z,29.1015,-89.9782,1013.34,11111222 
WAVCIS,ioos:station:WAVCIS:CSI09:1,2009-12-01T01:00:00Z,29.1015,-89.9782,1014.62,11111222 
WAVCIS,ioos:station:WAVCIS:CSI09:1,2009-12-01T02:00:00Z,29.1015,-89.9782,1014.96,11111222 
WAVCIS,ioos:station:WAVCIS:CSI09:1,2009-12-01T03:00:00Z,29.1015,-89.9782,1015.79,11111222 
WAVCIS,ioos:station:WAVCIS:CSI09:1,2009-12-01T04:00:00Z,29.1015,-89.9782,1016.06,11111222 
WAVCIS,ioos:station:WAVCIS:CSI09:1,2009-12-01T05:00:00Z,29.1015,-89.9782,1016.17,11111222 
WAVCIS,ioos:station:WAVCIS:CSI09:1,2009-12-01T06:00:00Z,29.1015,-89.9782,1014.91,11111222 
WAVCIS,ioos:station:WAVCIS:CSI09:1,2009-12-01T07:00:00Z,29.1015,-89.9782,1014.52,11111222 
WAVCIS,ioos:station:WAVCIS:CSI09:1,2009-12-01T08:00:00Z,29.1015,-89.9782,1014.02,11111222 
WAVCIS,ioos:station:WAVCIS:CSI09:1,2009-12-01T09:00:00Z,29.1015,-89.9782,1014.01,11111222 
WAVCIS,ioos:station:WAVCIS:CSI09:1,2009-12-01T10:00:00Z,29.1015,-89.9782,1013.81,11111222 
WAVCIS,ioos:station:WAVCIS:CSI09:1,2009-12-01T11:00:00Z,29.1015,-89.9782,1013.51,11111222 
WAVCIS,ioos:station:WAVCIS:CSI09:1,2009-12-01T12:00:00Z,29.1015,-89.9782,1012.83,11111222 
WAVCIS,ioos:station:WAVCIS:CSI09:1,2009-12-01T13:00:00Z,29.1015,-89.9782,1012.42,11111222 
WAVCIS,ioos:station:WAVCIS:CSI09:1,2009-12-01T14:00:00Z,29.1015,-89.9782,1011.73,11111222 
WAVCIS,ioos:station:WAVCIS:CSI09:1,2009-12-01T15:00:00Z,29.1015,-89.9782,1012.23,11111222 
WAVCIS,ioos:station:WAVCIS:CSI09:1,2009-12-01T16:00:00Z,29.1015,-89.9782,1012.4,11111222 
WAVCIS,ioos:station:WAVCIS:CSI09:1,2009-12-01T17:00:00Z,29.1015,-89.9782,1010.32,11111222 
WAVCIS,ioos:station:WAVCIS:CSI09:1,2009-12-01T18:00:00Z,29.1015,-89.9782,1009.66,11111222 
WAVCIS,ioos:station:WAVCIS:CSI09:1,2009-12-01T19:00:00Z,29.1015,-89.9782,1007.7,11111222 
WAVCIS,ioos:station:WAVCIS:CSI09:1,2009-12-01T20:00:00Z,29.1015,-89.9782,1004.978,11111222 
WAVCIS,ioos:station:WAVCIS:CSI09:1,2009-12-01T21:00:00Z,29.1015,-89.9782,1003.177,11111222 
WAVCIS,ioos:station:WAVCIS:CSI09:1,2009-12-01T22:00:00Z,29.1015,-89.9782,1002.149,11111222 
WAVCIS,ioos:station:WAVCIS:CSI09:1,2009-12-01T23:00:00Z,29.1015,-89.9782,1001.363,11111222 
WAVCIS,ioos:station:WAVCIS:CSI09:1,2009-12-02T00:00:00Z,29.1015,-89.9782,999.557,11111222 
WAVCIS,ioos:station:WAVCIS:CSI09:1,2009-12-02T01:00:00Z,29.1015,-89.9782,1000.046,11111222 
WAVCIS,ioos:station:WAVCIS:CSI09:1,2009-12-02T02:00:00Z,29.1015,-89.9782,1001.399,11111222 
WAVCIS,ioos:station:WAVCIS:CSI09:1,2009-12-02T03:00:00Z,29.1015,-89.9782,1002.007,11111222 
WAVCIS,ioos:station:WAVCIS:CSI09:1,2009-12-02T04:00:00Z,29.1015,-89.9782,1001.615,11111222 
WAVCIS,ioos:station:WAVCIS:CSI09:1,2009-12-02T05:00:00Z,29.1015,-89.9782,1000.586,11111222 
WAVCIS,ioos:station:WAVCIS:CSI09:1,2009-12-02T06:00:00Z,29.1015,-89.9782,999.085,11111222 
WAVCIS,ioos:station:WAVCIS:CSI09:1,2009-12-02T07:00:00Z,29.1015,-89.9782,998.833,11111222 
WAVCIS,ioos:station:WAVCIS:CSI09:1,2009-12-02T08:00:00Z,29.1015,-89.9782,998.974,11111222 
WAVCIS,ioos:station:WAVCIS:CSI09:1,2009-12-02T09:00:00Z,29.1015,-89.9782,997.688,11111222 
WAVCIS,ioos:station:WAVCIS:CSI09:1,2009-12-02T10:00:00Z,29.1015,-89.9782,998.216,11111222 
WAVCIS,ioos:station:WAVCIS:CSI09:1,2009-12-02T11:00:00Z,29.1015,-89.9782,997.603,11111222 
WAVCIS,ioos:station:WAVCIS:CSI09:1,2009-12-02T12:00:00Z,29.1015,-89.9782,999.502,11111222 
WAVCIS,ioos:station:WAVCIS:CSI09:1,2009-12-02T13:00:00Z,29.1015,-89.9782,1000.701,11111222 
WAVCIS,ioos:station:WAVCIS:CSI09:1,2009-12-02T14:00:00Z,29.1015,-89.9782,1002.663,11111222 
WAVCIS,ioos:station:WAVCIS:CSI09:1,2009-12-02T15:00:00Z,29.1015,-89.9782,1003.655,11111222 
WAVCIS,ioos:station:WAVCIS:CSI09:1,2009-12-02T16:00:00Z,29.1015,-89.9782,1004.734,11111222 
WAVCIS,ioos:station:WAVCIS:CSI09:1,2009-12-02T17:00:00Z,29.1015,-89.9782,1004.893,11111222 
WAVCIS,ioos:station:WAVCIS:CSI09:1,2009-12-02T18:00:00Z,29.1015,-89.9782,1004.089,11111222 
WAVCIS,ioos:station:WAVCIS:CSI09:1,2009-12-02T19:00:00Z,29.1015,-89.9782,1003.511,11111222 
WAVCIS,ioos:station:WAVCIS:CSI09:1,2009-12-02T20:00:00Z,29.1015,-89.9782,1003.008,11111222 
WAVCIS,ioos:station:WAVCIS:CSI09:1,2009-12-02T21:00:00Z,29.1015,-89.9782,1003.738,11111222 
WAVCIS,ioos:station:WAVCIS:CSI09:1,2009-12-02T22:00:00Z,29.1015,-89.9782,1004.6,11111222 
WAVCIS,ioos:station:WAVCIS:CSI09:1,2009-12-02T23:00:00Z,29.1015,-89.9782,1005.941,11111222 
WAVCIS,ioos:station:WAVCIS:CSI09:1,2009-12-03T00:00:00Z,29.1015,-89.9782,1007.44,11111222 
WAVCIS,ioos:station:WAVCIS:CSI09:1,2009-12-03T01:00:00Z,29.1015,-89.9782,1008.09,11111222 
WAVCIS,ioos:station:WAVCIS:CSI09:1,2009-12-03T02:00:00Z,29.1015,-89.9782,1009.41,11111222 
WAVCIS,ioos:station:WAVCIS:CSI09:1,2009-12-03T03:00:00Z,29.1015,-89.9782,1010.09,11111222 
WAVCIS,ioos:station:WAVCIS:CSI09:1,2009-12-03T04:00:00Z,29.1015,-89.9782,1010.82,11111222 
WAVCIS,ioos:station:WAVCIS:CSI09:1,2009-12-03T05:00:00Z,29.1015,-89.9782,1011.42,11111222 
WAVCIS,ioos:station:WAVCIS:CSI09:1,2009-12-03T06:00:00Z,29.1015,-89.9782,1011.54,11111222 
WAVCIS,ioos:station:WAVCIS:CSI09:1,2009-12-03T07:00:00Z,29.1015,-89.9782,1011.58,11111222 
WAVCIS,ioos:station:WAVCIS:CSI09:1,2009-12-03T08:00:00Z,29.1015,-89.9782,1012.34,11111222 
WAVCIS,ioos:station:WAVCIS:CSI09:1,2009-12-03T09:00:00Z,29.1015,-89.9782,1013.38,11111222 
WAVCIS,ioos:station:WAVCIS:CSI09:1,2009-12-03T10:00:00Z,29.1015,-89.9782,1013.81,11111222 
WAVCIS,ioos:station:WAVCIS:CSI09:1,2009-12-03T11:00:00Z,29.1015,-89.9782,1014.25,11111222 
WAVCIS,ioos:station:WAVCIS:CSI09:1,2009-12-03T12:00:00Z,29.1015,-89.9782,1014.96,11111222 
WAVCIS,ioos:station:WAVCIS:CSI09:1,2009-12-03T13:00:00Z,29.1015,-89.9782,1015.41,11111222 
WAVCIS,ioos:station:WAVCIS:CSI09:1,2009-12-03T14:00:00Z,29.1015,-89.9782,1016.53,11111222 
WAVCIS,ioos:station:WAVCIS:CSI09:1,2009-12-03T15:00:00Z,29.1015,-89.9782,1017.32,11111222 
WAVCIS,ioos:station:WAVCIS:CSI09:1,2009-12-03T16:00:00Z,29.1015,-89.9782,1017.86,11111222 
WAVCIS,ioos:station:WAVCIS:CSI09:1,2009-12-03T17:00:00Z,29.1015,-89.9782,1017.86,11111222 
WAVCIS,ioos:station:WAVCIS:CSI09:1,2009-12-03T18:00:00Z,29.1015,-89.9782,1017.57,11111222 
WAVCIS,ioos:station:WAVCIS:CSI09:1,2009-12-03T19:00:00Z,29.1015,-89.9782,1016.97,11111222 
WAVCIS,ioos:station:WAVCIS:CSI09:1,2009-12-03T20:00:00Z,29.1015,-89.9782,1016.99,11111222 
WAVCIS,ioos:station:WAVCIS:CSI09:1,2009-12-03T21:00:00Z,29.1015,-89.9782,1017.56,11111222 
WAVCIS,ioos:station:WAVCIS:CSI09:1,2009-12-03T22:00:00Z,29.1015,-89.9782,1017.47,11111222 
WAVCIS,ioos:station:WAVCIS:CSI09:1,2009-12-03T23:00:00Z,29.1015,-89.9782,1017.57,11111222 
WAVCIS,ioos:station:WAVCIS:CSI09:1,2009-12-04T00:00:00Z,29.1015,-89.9782,1017.9,11111222 
WAVCIS,ioos:station:WAVCIS:CSI09:1,2009-12-04T01:00:00Z,29.1015,-89.9782,1018.38,11111222 
WAVCIS,ioos:station:WAVCIS:CSI09:1,2009-12-04T02:00:00Z,29.1015,-89.9782,1018.75,11111222 
WAVCIS,ioos:station:WAVCIS:CSI09:1,2009-12-04T03:00:00Z,29.1015,-89.9782,1019.86,11111222 
WAVCIS,ioos:station:WAVCIS:CSI09:1,2009-12-04T04:00:00Z,29.1015,-89.9782,1019.83,11111222 
WAVCIS,ioos:station:WAVCIS:CSI09:1,2009-12-04T05:00:00Z,29.1015,-89.9782,1019.64,11111222 
WAVCIS,ioos:station:WAVCIS:CSI09:1,2009-12-04T06:00:00Z,29.1015,-89.9782,1019.22,11111222 
WAVCIS,ioos:station:WAVCIS:CSI09:1,2009-12-04T07:00:00Z,29.1015,-89.9782,1019.44,11111222 
WAVCIS,ioos:station:WAVCIS:CSI09:1,2009-12-04T08:00:00Z,29.1015,-89.9782,1019.73,11111222 
WAVCIS,ioos:station:WAVCIS:CSI09:1,2009-12-04T09:00:00Z,29.1015,-89.9782,1019.12,11111222 
WAVCIS,ioos:station:WAVCIS:CSI09:1,2009-12-04T10:00:00Z,29.1015,-89.9782,1018.63,11111222 
WAVCIS,ioos:station:WAVCIS:CSI09:1,2009-12-04T11:00:00Z,29.1015,-89.9782,1018.75,11111222 
WAVCIS,ioos:station:WAVCIS:CSI09:1,2009-12-04T12:00:00Z,29.1015,-89.9782,1019.03,11111222 
WAVCIS,ioos:station:WAVCIS:CSI09:1,2009-12-04T13:00:00Z,29.1015,-89.9782,1020.82,11111222 
WAVCIS,ioos:station:WAVCIS:CSI09:1,2009-12-04T14:00:00Z,29.1015,-89.9782,1020.76,11111222 
WAVCIS,ioos:station:WAVCIS:CSI09:1,2009-12-04T15:00:00Z,29.1015,-89.9782,1020.57,11111222 
WAVCIS,ioos:station:WAVCIS:CSI09:1,2009-12-04T16:00:00Z,29.1015,-89.9782,1019.77,11111222 
WAVCIS,ioos:station:WAVCIS:CSI09:1,2009-12-04T17:00:00Z,29.1015,-89.9782,1019.11,11111222 
WAVCIS,ioos:station:WAVCIS:CSI09:1,2009-12-04T18:00:00Z,29.1015,-89.9782,1015.71,11111222 
WAVCIS,ioos:station:WAVCIS:CSI09:1,2009-12-04T19:00:00Z,29.1015,-89.9782,1016.08,11111222 
WAVCIS,ioos:station:WAVCIS:CSI09:1,2009-12-04T20:00:00Z,29.1015,-89.9782,1015.07,11111222 
WAVCIS,ioos:station:WAVCIS:CSI09:1,2009-12-04T21:00:00Z,29.1015,-89.9782,1014.57,11111222 
WAVCIS,ioos:station:WAVCIS:CSI09:1,2009-12-04T22:00:00Z,29.1015,-89.9782,1014.71,11111222 
WAVCIS,ioos:station:WAVCIS:CSI09:1,2009-12-04T23:00:00Z,29.1015,-89.9782,1015.9,11111222 
WAVCIS,ioos:station:WAVCIS:CSI09:1,2009-12-05T00:00:00Z,29.1015,-89.9782,1016.33,11111222 
WAVCIS,ioos:station:WAVCIS:CSI09:1,2009-12-05T01:00:00Z,29.1015,-89.9782,1015.55,11111222 
WAVCIS,ioos:station:WAVCIS:CSI09:1,2009-12-05T02:00:00Z,29.1015,-89.9782,1016.35,11111222 
WAVCIS,ioos:station:WAVCIS:CSI09:1,2009-12-05T03:00:00Z,29.1015,-89.9782,1018.35,11111222 
WAVCIS,ioos:station:WAVCIS:CSI09:1,2009-12-05T04:00:00Z,29.1015,-89.9782,1019.05,11111222 
WAVCIS,ioos:station:WAVCIS:CSI09:1,2009-12-05T05:00:00Z,29.1015,-89.9782,1019.18,11111222 
WAVCIS,ioos:station:WAVCIS:CSI09:1,2009-12-05T06:00:00Z,29.1015,-89.9782,1018.87,11111222 
WAVCIS,ioos:station:WAVCIS:CSI09:1,2009-12-05T07:00:00Z,29.1015,-89.9782,1018.66,11111222 
WAVCIS,ioos:station:WAVCIS:CSI09:1,2009-12-05T08:00:00Z,29.1015,-89.9782,1019.22,11111222 
WAVCIS,ioos:station:WAVCIS:CSI09:1,2009-12-05T09:00:00Z,29.1015,-89.9782,1019.28,11111222 
WAVCIS,ioos:station:WAVCIS:CSI09:1,2009-12-05T10:00:00Z,29.1015,-89.9782,1019.82,11111222 
WAVCIS,ioos:station:WAVCIS:CSI09:1,2009-12-05T11:00:00Z,29.1015,-89.9782,1020.33,11111222 
WAVCIS,ioos:station:WAVCIS:CSI09:1,2009-12-05T12:00:00Z,29.1015,-89.9782,1021.05,11111222 
WAVCIS,ioos:station:WAVCIS:CSI09:1,2009-12-05T13:00:00Z,29.1015,-89.9782,1021.36,11111222 
WAVCIS,ioos:station:WAVCIS:CSI09:1,2009-12-05T14:00:00Z,29.1015,-89.9782,1022.12,11111222 
WAVCIS,ioos:station:WAVCIS:CSI09:1,2009-12-05T15:00:00Z,29.1015,-89.9782,1022.53,11111222 
WAVCIS,ioos:station:WAVCIS:CSI09:1,2009-12-05T16:00:00Z,29.1015,-89.9782,1022.72,11111222 
WAVCIS,ioos:station:WAVCIS:CSI09:1,2009-12-05T17:00:00Z,29.1015,-89.9782,1022.63,11111222 
WAVCIS,ioos:station:WAVCIS:CSI09:1,2009-12-05T18:00:00Z,29.1015,-89.9782,1021.92,11111222 
WAVCIS,ioos:station:WAVCIS:CSI09:1,2009-12-05T19:00:00Z,29.1015,-89.9782,1021.21,11111222 
WAVCIS,ioos:station:WAVCIS:CSI09:1,2009-12-05T20:00:00Z,29.1015,-89.9782,1021.5,11111222 
WAVCIS,ioos:station:WAVCIS:CSI09:1,2009-12-05T21:00:00Z,29.1015,-89.9782,1021.39,11111222 
WAVCIS,ioos:station:WAVCIS:CSI09:1,2009-12-05T22:00:00Z,29.1015,-89.9782,1021.7,11111222 
WAVCIS,ioos:station:WAVCIS:CSI09:1,2009-12-05T23:00:00Z,29.1015,-89.9782,1021.36,11111222 
WAVCIS,ioos:station:WAVCIS:CSI09:1,2009-12-06T00:00:00Z,29.1015,-89.9782,1021.56,11111222 
WAVCIS,ioos:station:WAVCIS:CSI09:1,2009-12-06T01:00:00Z,29.1015,-89.9782,1021.07,11111222 
WAVCIS,ioos:station:WAVCIS:CSI09:1,2009-12-06T02:00:00Z,29.1015,-89.9782,1021.09,11111222 
WAVCIS,ioos:station:WAVCIS:CSI09:1,2009-12-06T03:00:00Z,29.1015,-89.9782,1021.54,11111222 
WAVCIS,ioos:station:WAVCIS:CSI09:1,2009-12-06T04:00:00Z,29.1015,-89.9782,1020.9,11111222 
WAVCIS,ioos:station:WAVCIS:CSI09:1,2009-12-06T05:00:00Z,29.1015,-89.9782,1020.95,11111222 
WAVCIS,ioos:station:WAVCIS:CSI09:1,2009-12-06T06:00:00Z,29.1015,-89.9782,1020.77,11111222 
WAVCIS,ioos:station:WAVCIS:CSI09:1,2009-12-06T07:00:00Z,29.1015,-89.9782,1020.76,11111222 
WAVCIS,ioos:station:WAVCIS:CSI09:1,2009-12-06T08:00:00Z,29.1015,-89.9782,1020.8,11111222 
WAVCIS,ioos:station:WAVCIS:CSI09:1,2009-12-06T09:00:00Z,29.1015,-89.9782,1021.27,11111222 
WAVCIS,ioos:station:WAVCIS:CSI09:1,2009-12-06T10:00:00Z,29.1015,-89.9782,1020.87,11111222 
WAVCIS,ioos:station:WAVCIS:CSI09:1,2009-12-06T11:00:00Z,29.1015,-89.9782,1020.47,11111222 
WAVCIS,ioos:station:WAVCIS:CSI09:1,2009-12-06T12:00:00Z,29.1015,-89.9782,1020.15,11111222 
WAVCIS,ioos:station:WAVCIS:CSI09:1,2009-12-06T13:00:00Z,29.1015,-89.9782,1020.49,11111222 
WAVCIS,ioos:station:WAVCIS:CSI09:1,2009-12-06T14:00:00Z,29.1015,-89.9782,1021.52,11111222 
WAVCIS,ioos:station:WAVCIS:CSI09:1,2009-12-06T15:00:00Z,29.1015,-89.9782,1022.19,11111222 
WAVCIS,ioos:station:WAVCIS:CSI09:1,2009-12-06T16:00:00Z,29.1015,-89.9782,1021.23,11111222 
WAVCIS,ioos:station:WAVCIS:CSI09:1,2009-12-06T17:00:00Z,29.1015,-89.9782,1020.73,11111222 
WAVCIS,ioos:station:WAVCIS:CSI09:1,2009-12-06T18:00:00Z,29.1015,-89.9782,1019.59,11111222 
WAVCIS,ioos:station:WAVCIS:CSI09:1,2009-12-06T19:00:00Z,29.1015,-89.9782,1018.72,11111222 
WAVCIS,ioos:station:WAVCIS:CSI09:1,2009-12-06T20:00:00Z,29.1015,-89.9782,1018.14,11111222 
WAVCIS,ioos:station:WAVCIS:CSI09:1,2009-12-06T21:00:00Z,29.1015,-89.9782,1018.34,11111222 
WAVCIS,ioos:station:WAVCIS:CSI09:1,2009-12-06T22:00:00Z,29.1015,-89.9782,1018.49,11111222 
WAVCIS,ioos:station:WAVCIS:CSI09:1,2009-12-06T23:00:00Z,29.1015,-89.9782,1018.53,11111222 
WAVCIS,ioos:station:WAVCIS:CSI09:1,2009-12-07T00:00:00Z,29.1015,-89.9782,1018.66,11111222 
WAVCIS,ioos:station:WAVCIS:CSI09:1,2009-12-07T01:00:00Z,29.1015,-89.9782,1018.14,11111222 
WAVCIS,ioos:station:WAVCIS:CSI09:1,2009-12-07T02:00:00Z,29.1015,-89.9782,1018.05,11111222 
WAVCIS,ioos:station:WAVCIS:CSI09:1,2009-12-07T03:00:00Z,29.1015,-89.9782,1018.04,11111222 
WAVCIS,ioos:station:WAVCIS:CSI09:1,2009-12-07T04:00:00Z,29.1015,-89.9782,1017.9,11111222 
WAVCIS,ioos:station:WAVCIS:CSI09:1,2009-12-07T05:00:00Z,29.1015,-89.9782,1017.8,11111222 
WAVCIS,ioos:station:WAVCIS:CSI09:1,2009-12-07T06:00:00Z,29.1015,-89.9782,1017.26,11111222 
WAVCIS,ioos:station:WAVCIS:CSI09:1,2009-12-07T07:00:00Z,29.1015,-89.9782,1017.06,11111222 
WAVCIS,ioos:station:WAVCIS:CSI09:1,2009-12-07T08:00:00Z,29.1015,-89.9782,1016.85,11111222 
WAVCIS,ioos:station:WAVCIS:CSI09:1,2009-12-07T09:00:00Z,29.1015,-89.9782,1016.69,11111222 
WAVCIS,ioos:station:WAVCIS:CSI09:1,2009-12-07T10:00:00Z,29.1015,-89.9782,1016.69,11111222 
WAVCIS,ioos:station:WAVCIS:CSI09:1,2009-12-07T11:00:00Z,29.1015,-89.9782,1016.82,11111222 
WAVCIS,ioos:station:WAVCIS:CSI09:1,2009-12-07T12:00:00Z,29.1015,-89.9782,1017.2,11111222 
WAVCIS,ioos:station:WAVCIS:CSI09:1,2009-12-07T13:00:00Z,29.1015,-89.9782,1017.57,11111222 
WAVCIS,ioos:station:WAVCIS:CSI09:1,2009-12-07T14:00:00Z,29.1015,-89.9782,1018.1,11111222 
WAVCIS,ioos:station:WAVCIS:CSI09:1,2009-12-07T15:00:00Z,29.1015,-89.9782,1018.72,11111222 
WAVCIS,ioos:station:WAVCIS:CSI09:1,2009-12-07T16:00:00Z,29.1015,-89.9782,1018.99,11111222 
WAVCIS,ioos:station:WAVCIS:CSI09:1,2009-12-07T17:00:00Z,29.1015,-89.9782,1018.58,11111222 
WAVCIS,ioos:station:WAVCIS:CSI09:1,2009-12-07T18:00:00Z,29.1015,-89.9782,1017.65,11111222 
WAVCIS,ioos:station:WAVCIS:CSI09:1,2009-12-07T19:00:00Z,29.1015,-89.9782,1016.44,11111222 
WAVCIS,ioos:station:WAVCIS:CSI09:1,2009-12-07T20:00:00Z,29.1015,-89.9782,1016.09,11111222 
WAVCIS,ioos:station:WAVCIS:CSI09:1,2009-12-07T21:00:00Z,29.1015,-89.9782,1016.26,11111222 
WAVCIS,ioos:station:WAVCIS:CSI09:1,2009-12-07T22:00:00Z,29.1015,-89.9782,1016.34,11111222 
WAVCIS,ioos:station:WAVCIS:CSI09:1,2009-12-07T23:00:00Z,29.1015,-89.9782,1016.29,11111222 
WAVCIS,ioos:station:WAVCIS:CSI09:1,2009-12-08T00:00:00Z,29.1015,-89.9782,1016.2,11111222 
WAVCIS,ioos:station:WAVCIS:CSI09:1,2009-12-08T01:00:00Z,29.1015,-89.9782,1016.33,11111222 
WAVCIS,ioos:station:WAVCIS:CSI09:1,2009-12-08T02:00:00Z,29.1015,-89.9782,1016.5,11111222 
WAVCIS,ioos:station:WAVCIS:CSI09:1,2009-12-08T03:00:00Z,29.1015,-89.9782,1016.19,11111222 
WAVCIS,ioos:station:WAVCIS:CSI09:1,2009-12-08T04:00:00Z,29.1015,-89.9782,1015.8,11111222 
WAVCIS,ioos:station:WAVCIS:CSI09:1,2009-12-08T05:00:00Z,29.1015,-89.9782,1015.17,11111222 
WAVCIS,ioos:station:WAVCIS:CSI09:1,2009-12-08T06:00:00Z,29.1015,-89.9782,1013.4,11111222 
WAVCIS,ioos:station:WAVCIS:CSI09:1,2009-12-08T07:00:00Z,29.1015,-89.9782,1013.1,11111222 
WAVCIS,ioos:station:WAVCIS:CSI09:1,2009-12-08T08:00:00Z,29.1015,-89.9782,1012.56,11111222 
WAVCIS,ioos:station:WAVCIS:CSI09:1,2009-12-08T09:00:00Z,29.1015,-89.9782,1011.91,11111222 
WAVCIS,ioos:station:WAVCIS:CSI09:1,2009-12-08T10:00:00Z,29.1015,-89.9782,1011.68,11111222 
WAVCIS,ioos:station:WAVCIS:CSI09:1,2009-12-08T11:00:00Z,29.1015,-89.9782,1011.89,11111222 
WAVCIS,ioos:station:WAVCIS:CSI09:1,2009-12-08T12:00:00Z,29.1015,-89.9782,1012.05,11111222 
WAVCIS,ioos:station:WAVCIS:CSI09:1,2009-12-08T13:00:00Z,29.1015,-89.9782,1012.86,11111222 
WAVCIS,ioos:station:WAVCIS:CSI09:1,2009-12-08T14:00:00Z,29.1015,-89.9782,1012.89,11111222 
WAVCIS,ioos:station:WAVCIS:CSI09:1,2009-12-08T15:00:00Z,29.1015,-89.9782,1013.04,11111222 
WAVCIS,ioos:station:WAVCIS:CSI09:1,2009-12-08T16:00:00Z,29.1015,-89.9782,1012.39,11111222 
WAVCIS,ioos:station:WAVCIS:CSI09:1,2009-12-08T17:00:00Z,29.1015,-89.9782,1011.25,11111222 
WAVCIS,ioos:station:WAVCIS:CSI09:1,2009-12-08T18:00:00Z,29.1015,-89.9782,1010.13,11111222 
WAVCIS,ioos:station:WAVCIS:CSI09:1,2009-12-08T19:00:00Z,29.1015,-89.9782,1008.43,11111222 
WAVCIS,ioos:station:WAVCIS:CSI09:1,2009-12-08T20:00:00Z,29.1015,-89.9782,1007.31,11111222 
WAVCIS,ioos:station:WAVCIS:CSI09:1,2009-12-08T21:00:00Z,29.1015,-89.9782,1006.583,11111222 
WAVCIS,ioos:station:WAVCIS:CSI09:1,2009-12-08T22:00:00Z,29.1015,-89.9782,1006.318,11111222 
WAVCIS,ioos:station:WAVCIS:CSI09:1,2009-12-08T23:00:00Z,29.1015,-89.9782,1005.886,11111222 
WAVCIS,ioos:station:WAVCIS:CSI09:1,2009-12-09T00:00:00Z,29.1015,-89.9782,1006.198,11111222 
WAVCIS,ioos:station:WAVCIS:CSI09:1,2009-12-09T01:00:00Z,29.1015,-89.9782,1006.378,11111222 
WAVCIS,ioos:station:WAVCIS:CSI09:1,2009-12-09T02:00:00Z,29.1015,-89.9782,1006.817,11111222 
WAVCIS,ioos:station:WAVCIS:CSI09:1,2009-12-09T03:00:00Z,29.1015,-89.9782,1007.19,11111222 
WAVCIS,ioos:station:WAVCIS:CSI09:1,2009-12-09T04:00:00Z,29.1015,-89.9782,1006.912,11111222 
WAVCIS,ioos:station:WAVCIS:CSI09:1,2009-12-09T05:00:00Z,29.1015,-89.9782,1006.854,11111222 
WAVCIS,ioos:station:WAVCIS:CSI09:1,2009-12-09T06:00:00Z,29.1015,-89.9782,1007.28,11111222 
WAVCIS,ioos:station:WAVCIS:CSI09:1,2009-12-09T07:00:00Z,29.1015,-89.9782,1006.906,11111222 
WAVCIS,ioos:station:WAVCIS:CSI09:1,2009-12-09T08:00:00Z,29.1015,-89.9782,1006.749,11111222 
WAVCIS,ioos:station:WAVCIS:CSI09:1,2009-12-09T09:00:00Z,29.1015,-89.9782,1006.222,11111222 
WAVCIS,ioos:station:WAVCIS:CSI09:1,2009-12-09T10:00:00Z,29.1015,-89.9782,1006.738,11111222 
WAVCIS,ioos:station:WAVCIS:CSI09:1,2009-12-09T11:00:00Z,29.1015,-89.9782,1006.442,11111222 
WAVCIS,ioos:station:WAVCIS:CSI09:1,2009-12-09T12:00:00Z,29.1015,-89.9782,1006.912,11111222 
WAVCIS,ioos:station:WAVCIS:CSI09:1,2009-12-09T13:00:00Z,29.1015,-89.9782,1007.36,11111222 
WAVCIS,ioos:station:WAVCIS:CSI09:1,2009-12-09T14:00:00Z,29.1015,-89.9782,1007.97,11111222 
WAVCIS,ioos:station:WAVCIS:CSI09:1,2009-12-09T15:00:00Z,29.1015,-89.9782,1008.91,11111222 
WAVCIS,ioos:station:WAVCIS:CSI09:1,2009-12-09T16:00:00Z,29.1015,-89.9782,1009.31,11111222 
WAVCIS,ioos:station:WAVCIS:CSI09:1,2009-12-09T17:00:00Z,29.1015,-89.9782,1008.78,11111222 
WAVCIS,ioos:station:WAVCIS:CSI09:1,2009-12-09T18:00:00Z,29.1015,-89.9782,1008.23,11111222 
WAVCIS,ioos:station:WAVCIS:CSI09:1,2009-12-09T19:00:00Z,29.1015,-89.9782,1007.26,11111222 
WAVCIS,ioos:station:WAVCIS:CSI09:1,2009-12-09T20:00:00Z,29.1015,-89.9782,1007.46,11111222 
WAVCIS,ioos:station:WAVCIS:CSI09:1,2009-12-09T21:00:00Z,29.1015,-89.9782,1008.17,11111222 
WAVCIS,ioos:station:WAVCIS:CSI09:1,2009-12-09T22:00:00Z,29.1015,-89.9782,1008.99,11111222 
WAVCIS,ioos:station:WAVCIS:CSI09:1,2009-12-09T23:00:00Z,29.1015,-89.9782,1009.61,11111222 
WAVCIS,ioos:station:WAVCIS:CSI09:1,2009-12-10T00:00:00Z,29.1015,-89.9782,1010.54,11111222 
WAVCIS,ioos:station:WAVCIS:CSI09:1,2009-12-10T01:00:00Z,29.1015,-89.9782,1011.11,11111222 
WAVCIS,ioos:station:WAVCIS:CSI09:1,2009-12-10T02:00:00Z,29.1015,-89.9782,1011.62,11111222 
WAVCIS,ioos:station:WAVCIS:CSI09:1,2009-12-10T03:00:00Z,29.1015,-89.9782,1012.32,11111222 
WAVCIS,ioos:station:WAVCIS:CSI09:1,2009-12-10T04:00:00Z,29.1015,-89.9782,1012.34,11111222 
WAVCIS,ioos:station:WAVCIS:CSI09:1,2009-12-10T05:00:00Z,29.1015,-89.9782,1012.73,11111222 
WAVCIS,ioos:station:WAVCIS:CSI09:1,2009-12-10T06:00:00Z,29.1015,-89.9782,1012.9,11111222 
WAVCIS,ioos:station:WAVCIS:CSI09:1,2009-12-10T07:00:00Z,29.1015,-89.9782,1012.81,11111222 
WAVCIS,ioos:station:WAVCIS:CSI09:1,2009-12-10T08:00:00Z,29.1015,-89.9782,1013.18,11111222 
WAVCIS,ioos:station:WAVCIS:CSI09:1,2009-12-10T09:00:00Z,29.1015,-89.9782,1014.12,11111222 
WAVCIS,ioos:station:WAVCIS:CSI09:1,2009-12-10T10:00:00Z,29.1015,-89.9782,1014.56,11111222 
WAVCIS,ioos:station:WAVCIS:CSI09:1,2009-12-10T11:00:00Z,29.1015,-89.9782,1015.33,11111222 
WAVCIS,ioos:station:WAVCIS:CSI09:1,2009-12-10T12:00:00Z,29.1015,-89.9782,1016.11,11111222 
WAVCIS,ioos:station:WAVCIS:CSI09:1,2009-12-10T13:00:00Z,29.1015,-89.9782,1016.8,11111222 
WAVCIS,ioos:station:WAVCIS:CSI09:1,2009-12-10T14:00:00Z,29.1015,-89.9782,1018.38,11111222 
WAVCIS,ioos:station:WAVCIS:CSI09:1,2009-12-10T15:00:00Z,29.1015,-89.9782,1019.59,11111222 
WAVCIS,ioos:station:WAVCIS:CSI09:1,2009-12-10T16:00:00Z,29.1015,-89.9782,1020.17,11111222 
WAVCIS,ioos:station:WAVCIS:CSI09:1,2009-12-10T17:00:00Z,29.1015,-89.9782,1020.09,11111222 
WAVCIS,ioos:station:WAVCIS:CSI09:1,2009-12-10T18:00:00Z,29.1015,-89.9782,1019.1,11111222 
WAVCIS,ioos:station:WAVCIS:CSI09:1,2009-12-10T19:00:00Z,29.1015,-89.9782,1018.54,11111222 
WAVCIS,ioos:station:WAVCIS:CSI09:1,2009-12-10T20:00:00Z,29.1015,-89.9782,1018.43,11111222 
WAVCIS,ioos:station:WAVCIS:CSI09:1,2009-12-10T21:00:00Z,29.1015,-89.9782,1018.9,11111222 
WAVCIS,ioos:station:WAVCIS:CSI09:1,2009-12-10T22:00:00Z,29.1015,-89.9782,1019.46,11111222 
WAVCIS,ioos:station:WAVCIS:CSI09:1,2009-12-10T23:00:00Z,29.1015,-89.9782,1019.76,11111222 
WAVCIS,ioos:station:WAVCIS:CSI09:1,2009-12-11T00:00:00Z,29.1015,-89.9782,1020.4,11111222 
WAVCIS,ioos:station:WAVCIS:CSI09:1,2009-12-11T01:00:00Z,29.1015,-89.9782,1020.98,11111222 
WAVCIS,ioos:station:WAVCIS:CSI09:1,2009-12-11T02:00:00Z,29.1015,-89.9782,1020.96,11111222 
WAVCIS,ioos:station:WAVCIS:CSI09:1,2009-12-11T03:00:00Z,29.1015,-89.9782,1021.45,11111222 
WAVCIS,ioos:station:WAVCIS:CSI09:1,2009-12-11T04:00:00Z,29.1015,-89.9782,1021.24,11111222 
WAVCIS,ioos:station:WAVCIS:CSI09:1,2009-12-11T05:00:00Z,29.1015,-89.9782,1021.5,11111222 
WAVCIS,ioos:station:WAVCIS:CSI09:1,2009-12-11T06:00:00Z,29.1015,-89.9782,1021.23,11111222 
WAVCIS,ioos:station:WAVCIS:CSI09:1,2009-12-11T07:00:00Z,29.1015,-89.9782,1021.55,11111222 
WAVCIS,ioos:station:WAVCIS:CSI09:1,2009-12-11T08:00:00Z,29.1015,-89.9782,1021.53,11111222 
WAVCIS,ioos:station:WAVCIS:CSI09:1,2009-12-11T09:00:00Z,29.1015,-89.9782,1021.42,11111222 
WAVCIS,ioos:station:WAVCIS:CSI09:1,2009-12-11T10:00:00Z,29.1015,-89.9782,1021.25,11111222 
WAVCIS,ioos:station:WAVCIS:CSI09:1,2009-12-11T11:00:00Z,29.1015,-89.9782,1021.25,11111222 
WAVCIS,ioos:station:WAVCIS:CSI09:1,2009-12-11T12:00:00Z,29.1015,-89.9782,1021.93,11111222 
WAVCIS,ioos:station:WAVCIS:CSI09:1,2009-12-11T13:00:00Z,29.1015,-89.9782,1022.0,11111222 
WAVCIS,ioos:station:WAVCIS:CSI09:1,2009-12-11T14:00:00Z,29.1015,-89.9782,1022.66,11111222 
WAVCIS,ioos:station:WAVCIS:CSI09:1,2009-12-11T15:00:00Z,29.1015,-89.9782,1023.39,11111222 
WAVCIS,ioos:station:WAVCIS:CSI09:1,2009-12-11T16:00:00Z,29.1015,-89.9782,1024.14,11111222 
WAVCIS,ioos:station:WAVCIS:CSI09:1,2009-12-11T17:00:00Z,29.1015,-89.9782,1023.57,11111222 
WAVCIS,ioos:station:WAVCIS:CSI09:1,2009-12-11T18:00:00Z,29.1015,-89.9782,1022.7,11111222 
WAVCIS,ioos:station:WAVCIS:CSI09:1,2009-12-11T19:00:00Z,29.1015,-89.9782,1021.74,11111222 
WAVCIS,ioos:station:WAVCIS:CSI09:1,2009-12-11T20:00:00Z,29.1015,-89.9782,1021.32,11111222 
WAVCIS,ioos:station:WAVCIS:CSI09:1,2009-12-11T21:00:00Z,29.1015,-89.9782,1022.02,11111222 